Location: ???????????
(55.5758°N, 38.4970°E)
Time: 18:18:24
(UTC+00:00)

Cosmos 1315 Rocket - Pass Details

Date: 15 November 2025
Orbit: 497 x 513 km, 81.2° (Epoch: 14 December)

Event Time Altitude Azimuth Distance (km) Brightness Sun altitude
Rises 03:55:30 0° 346° (NNW) 2,647 6.0 -9.1°
Reaches altitude 10° 03:57:39 10° 347° (NNW) 1,757 5.1 -8.8°
Maximum altitude 04:01:30 81° 74° (ENE) 530 2.8 -8.3°
Drops below altitude 10° 04:05:21 10° 164° (SSE) 1,742 5.9 -7.8°
Sets 04:07:28 0° 165° (SSE) 2,623 6.9 -7.5°
